,,PA_Meas_PMT16A,,PR_Meas_QMR101_102,,RH_Meas_QMH101,,SR_Meas_QMS101,,TA_Meas_QMH101,,GenWind,,GenWind,
time,status,PA,status,PR,status,RH,status,SR,status,TA,status,DirAvg,status,SpdAvg,
2013-09-26, 00:00:04,VALID,919.526,VALID,0,VALID,96.4896,VALID,0,VALID,18.7293,VALID,162,VALID,0,
2013-09-26, 00:01:04,VALID,919.496,VALID,0,VALID,96.4819,VALID,0,VALID,18.7084,VALID,162,VALID,0,
2013-09-26, 00:02:04,VALID,919.508,VALID,0,VALID,96.5353,VALID,0,VALID,18.7488,VALID,162,VALID,0,
2013-09-26, 00:03:04,VALID,919.461,VALID,0,VALID,96.5506,VALID,0,VALID,18.7669,VALID,162,VALID,0,
2013-09-26, 00:04:04,VALID,919.46,VALID,0,VALID,96.5506,VALID,0,VALID,18.7683,VALID,162,VALID,0,
2013-09-26, 00:05:04,VALID,919.415,VALID,0,VALID,96.5506,VALID,0,VALID,18.7488,VALID,162,VALID,0,
2013-09-26, 00:06:04,VALID,919.4,VALID,0,VALID,96.5887,VALID,0,VALID,18.7293,VALID,162,VALID,0,
2013-09-26, 00:07:04,VALID,919.4,VALID,0,VALID,96.5734,VALID,0,VALID,18.7098,VALID,162,VALID,0,
2013-09-26, 00:08:04,VALID,919.4,VALID,0,VALID,96.5734,VALID,0,VALID,18.7113,VALID,162,VALID,0,
2013-09-26, 00:09:04,VALID,919.39,VALID,0,VALID,96.5811,VALID,0,VALID,18.6708,VALID,162,VALID,0,
2013-09-26, 00:10:04,VALID,919.375,VALID,0,VALID,96.5734,VALID,0,VALID,18.5705,VALID,162,VALID,0,
2013-09-26, 00:11:04,VALID,919.365,VALID,0,VALID,96.5582,VALID,0,VALID,18.5525,VALID,162,VALID,0,
2013-09-26, 00:12:04,VALID,919.347,VALID,0,VALID,96.5734,VALID,0,VALID,18.5539,VALID,162,VALID,0,
2013-09-26, 00:13:04,VALID,919.345,VALID,0,VALID,96.5734,VALID,0,VALID,18.5734,VALID,162,VALID,0,
2013-09-26, 00:14:04,VALID,919.337,VALID,0,VALID,96.5811,VALID,0,VALID,18.5553,VALID,162,VALID,0,
2013-09-26, 00:15:04,VALID,919.267,VALID,0,VALID,96.6039,VALID,0,VALID,18.5539,VALID,113,VALID,0,
2013-09-26, 00:16:04,VALID,919.274,VALID,0,VALID,96.6497,VALID,0,VALID,18.572,VALID,113,VALID,0,
2013-09-26, 00:17:04,VALID,919.251,VALID,0,VALID,96.6573,VALID,0,VALID,18.5734,VALID,114,VALID,0,
2013-09-26, 00:18:04,VALID,919.213,VALID,0,VALID,96.6497,VALID,0,VALID,18.5734,VALID,117,VALID,0,
2013-09-26, 00:19:04,VALID,919.188,VALID,0,VALID,96.6649,VALID,0,VALID,18.5149,VALID,117,VALID,0,
2013-09-26, 00:20:04,VALID,919.192,VALID,0,VALID,96.6573,VALID,0,VALID,18.4954,VALID,118,VALID,0,
2013-09-26, 00:21:04,VALID,919.186,VALID,0,VALID,96.6344,VALID,0,VALID,18.4564,VALID,118,VALID,0,
2013-09-26, 00:22:04,VALID,919.185,VALID,0,VALID,96.6192,VALID,0,VALID,18.416,VALID,118,VALID,0,
2013-09-26, 00:23:04,VALID,919.215,VALID,0,VALID,96.6268,VALID,0,VALID,18.4188,VALID,118,VALID,0,
2013-09-26, 00:24:04,VALID,919.161,VALID,0,VALID,96.6115,VALID,0,VALID,18.4773,VALID,118,VALID,0,
2013-09-26, 00:25:04,VALID,919.193,VALID,0,VALID,96.6573,VALID,0,VALID,18.5344,VALID,118,VALID,0,
2013-09-26, 00:26:04,VALID,919.167,VALID,0,VALID,96.6649,VALID,0,VALID,18.5121,VALID,118,VALID,0,
2013-09-26, 00:27:04,VALID,919.196,VALID,0,VALID,96.6878,VALID,0,VALID,18.5525,VALID,117,VALID,0,
2013-09-26, 00:28:04,VALID,919.217,VALID,0,VALID,96.6802,VALID,0,VALID,18.5748,VALID,113,VALID,0,
2013-09-26, 00:29:04,VALID,919.26,VALID,0,VALID,96.6649,VALID,0,VALID,18.5539,VALID,111,VALID,0,
2013-09-26, 00:30:04,VALID,919.234,VALID,0,VALID,96.6802,VALID,0,VALID,18.533,VALID,111,VALID,0,
2013-09-26, 00:31:04,VALID,919.26,VALID,0,VALID,96.6878,VALID,0,VALID,18.5149,VALID,111,VALID,0,
2013-09-26, 00:32:04,VALID,919.283,VALID,0,VALID,96.6802,VALID,0,VALID,18.4759,VALID,117,VALID,0,
2013-09-26, 00:33:04,VALID,919.258,VALID,0,VALID,96.642,VALID,0,VALID,18.4174,VALID,123,VALID,0,
2013-09-26, 00:34:04,VALID,919.252,VALID,0,VALID,96.6497,VALID,0,VALID,18.4188,VALID,127,VALID,0,
2013-09-26, 00:35:04,VALID,919.254,VALID,0,VALID,96.642,VALID,0,VALID,18.3979,VALID,127,VALID,0,
2013-09-26, 00:36:04,VALID,919.251,VALID,0,VALID,96.6344,VALID,0,VALID,18.3784,VALID,134,VALID,0,
2013-09-26, 00:37:04,VALID,919.238,VALID,0,VALID,96.6649,VALID,0,VALID,18.3798,VALID,138,VALID,0,
2013-09-26, 00:38:04,VALID,919.249,VALID,0,VALID,96.6344,VALID,0,VALID,18.3199,VALID,139,VALID,0,
2013-09-26, 00:40:04,VALID,919.243,VALID,0,VALID,96.6802,VALID,0,VALID,18.377,VALID,136,VALID,0,
2013-09-26, 00:41:04,VALID,919.255,VALID,0,VALID,96.703,VALID,0,VALID,18.3979,VALID,129,VALID,0,
2013-09-26, 00:42:04,VALID,919.26,VALID,0,VALID,96.6802,VALID,0,VALID,18.377,VALID,137,VALID,0,
2013-09-26, 00:43:04,VALID,919.267,VALID,0,VALID,96.7183,VALID,0,VALID,18.3366,VALID,139,VALID,0,
2013-09-26, 00:44:04,VALID,919.277,VALID,0,VALID,96.6954,VALID,0,VALID,18.299,VALID,136,VALID,0,
2013-09-26, 00:45:04,VALID,919.284,VALID,0,VALID,96.7183,VALID,0.107441,VALID,18.3408,VALID,131,VALID,0,
2013-09-26, 00:46:04,VALID,919.303,VALID,0,VALID,96.7564,VALID,0,VALID,18.3603,VALID,132,VALID,0,
2013-09-26, 00:47:04,VALID,919.283,VALID,0,VALID,96.7564,VALID,0,VALID,18.3394,VALID,133,VALID,0,
2013-09-26, 00:48:04,VALID,919.266,VALID,0,VALID,96.764,VALID,0,VALID,18.3394,VALID,130,VALID,0,
2013-09-26, 00:49:04,VALID,919.286,VALID,0,VALID,96.7945,VALID,0,VALID,18.3213,VALID,129,VALID,0,
2013-09-26, 00:50:04,VALID,919.249,VALID,0,VALID,96.7869,VALID,0,VALID,18.3018,VALID,128,VALID,0,
2013-09-26, 00:51:04,VALID,919.247,VALID,0,VALID,96.7793,VALID,0,VALID,18.3032,VALID,123,VALID,0,
2013-09-26, 00:52:04,VALID,919.229,VALID,0,VALID,96.8021,VALID,0,VALID,18.2796,VALID,123,VALID,0,
2013-09-26, 00:53:04,VALID,919.246,VALID,0,VALID,96.8098,VALID,0,VALID,18.2615,VALID,123,VALID,0,
2013-09-26, 00:54:04,VALID,919.217,VALID,0,VALID,96.8174,VALID,0,VALID,18.2406,VALID,122,VALID,0,
2013-09-26, 00:55:04,VALID,919.246,VALID,0,VALID,96.8326,VALID,0,VALID,18.3213,VALID,122,VALID,0,
2013-09-26, 00:56:04,VALID,919.263,VALID,0,VALID,96.8555,VALID,0,VALID,18.3213,VALID,127,VALID,0,
2013-09-26, 00:57:04,VALID,919.246,VALID,0,VALID,96.8631,VALID,0,VALID,18.2601,VALID,139,VALID,0,
2013-09-26, 00:58:04,VALID,919.246,VALID,0,VALID,96.8479,VALID,0,VALID,18.242,VALID,138,VALID,0,
2013-09-26, 00:59:04,VALID,919.256,VALID,0,VALID,96.8631,VALID,0,VALID,18.2809,VALID,133,VALID,0,
2013-09-26, 01:00:04,VALID,919.241,VALID,0,VALID,96.8707,VALID,0,VALID,18.2601,VALID,134,VALID,0,
2013-09-26, 01:01:04,VALID,919.192,VALID,0,VALID,96.8555,VALID,0,VALID,18.2406,VALID,141,VALID,0,
2013-09-26, 01:02:04,VALID,919.195,VALID,0,VALID,96.8479,VALID,0,VALID,18.2197,VALID,135,VALID,0,
2013-09-26, 01:03:04,VALID,919.188,VALID,0,VALID,96.8403,VALID,0,VALID,18.2211,VALID,125,VALID,0,
2013-09-26, 01:04:04,VALID,919.202,VALID,0,VALID,96.8479,VALID,0,VALID,18.2211,VALID,137,VALID,0,
2013-09-26, 01:05:04,VALID,919.19,VALID,0,VALID,96.8326,VALID,0,VALID,18.2238,VALID,140,VALID,0,
2013-09-26, 01:06:04,VALID,919.183,VALID,0,VALID,96.8555,VALID,0,VALID,18.2447,VALID,142,VALID,0,
2013-09-26, 01:07:04,VALID,919.197,VALID,0,VALID,96.825,VALID,0,VALID,18.1821,VALID,141,VALID,0,
2013-09-26, 01:08:04,VALID,919.17,VALID,0,VALID,96.8326,VALID,0,VALID,18.242,VALID,132,VALID,0,
2013-09-26, 01:09:04,VALID,919.21,VALID,0,VALID,96.8403,VALID,0,VALID,18.2628,VALID,129,VALID,0,
2013-09-26, 01:10:04,VALID,919.197,VALID,0,VALID,96.8326,VALID,0.107441,VALID,18.299,VALID,134,VALID,0,
2013-09-26, 01:11:04,VALID,919.23,VALID,0,VALID,96.8555,VALID,0.107441,VALID,18.3394,VALID,137,VALID,0,
2013-09-26, 01:12:04,VALID,919.222,VALID,0,VALID,96.8479,VALID,0.107441,VALID,18.2796,VALID,137,VALID,0,
2013-09-26, 01:13:04,VALID,919.184,VALID,0,VALID,96.8479,VALID,0,VALID,18.2587,VALID,137,VALID,0,
2013-09-26, 01:14:04,VALID,919.197,VALID,0,VALID,96.8479,VALID,0.107441,VALID,18.2601,VALID,137,VALID,0,
2013-09-26, 01:15:04,VALID,919.185,VALID,0,VALID,96.8098,VALID,0.107441,VALID,18.2406,VALID,137,VALID,0,
2013-09-26, 01:16:04,VALID,919.173,VALID,0,VALID,96.8021,VALID,0.107441,VALID,18.242,VALID,137,VALID,0,
2013-09-26, 01:17:04,VALID,919.168,VALID,0,VALID,96.8021,VALID,0,VALID,18.2406,VALID,137,VALID,0,
2013-09-26, 01:18:04,VALID,919.237,VALID,0,VALID,96.8098,VALID,0.107441,VALID,18.2601,VALID,138,VALID,0,
2013-09-26, 01:19:04,VALID,919.204,VALID,0,VALID,96.8098,VALID,0,VALID,18.2796,VALID,139,VALID,0,
2013-09-26, 01:20:04,VALID,919.223,VALID,0,VALID,96.7945,VALID,0,VALID,18.299,VALID,140,VALID,0,
2013-09-26, 01:21:04,VALID,919.194,VALID,0,VALID,96.8098,VALID,0.107441,VALID,18.2977,VALID,137,VALID,0,
2013-09-26, 01:22:04,VALID,919.211,VALID,0,VALID,96.8098,VALID,0.107441,VALID,18.3185,VALID,132,VALID,0,
2013-09-26, 01:23:04,VALID,919.199,VALID,0,VALID,96.825,VALID,0.107441,VALID,18.2977,VALID,139,VALID,0,
2013-09-26, 01:24:04,VALID,919.16,VALID,0,VALID,96.825,VALID,0.107441,VALID,18.3185,VALID,142,VALID,0,
2013-09-26, 01:25:04,VALID,919.169,VALID,0,VALID,96.8098,VALID,0,VALID,18.3199,VALID,133,VALID,0,
2013-09-26, 01:26:04,VALID,919.109,VALID,0,VALID,96.7945,VALID,0,VALID,18.3199,VALID,139,VALID,0,
2013-09-26, 01:27:04,VALID,919.109,VALID,0,VALID,96.7945,VALID,0,VALID,18.3394,VALID,143,VALID,0,
2013-09-26, 01:28:04,VALID,919.057,VALID,0,VALID,96.7793,VALID,0,VALID,18.3394,VALID,143,VALID,0,
2013-09-26, 01:29:04,VALID,919.076,VALID,0,VALID,96.764,VALID,0,VALID,18.3394,VALID,143,VALID,0,
2013-09-26, 01:30:04,VALID,919.036,VALID,0,VALID,96.7488,VALID,0,VALID,18.3408,VALID,143,VALID,0,
2013-09-26, 01:31:04,VALID,919.008,VALID,0,VALID,96.7183,VALID,0,VALID,18.3199,VALID,143,VALID,0,
2013-09-26, 01:32:04,VALID,918.994,VALID,0,VALID,96.703,VALID,0,VALID,18.3213,VALID,143,VALID,0,
2013-09-26, 01:33:04,VALID,918.986,VALID,0,VALID,96.6802,VALID,0,VALID,18.3018,VALID,143,VALID,0,
2013-09-26, 01:34:04,VALID,918.991,VALID,0,VALID,96.6573,VALID,0,VALID,18.2615,VALID,143,VALID,0,
2013-09-26, 01:35:04,VALID,919.006,VALID,0,VALID,96.6268,VALID,0,VALID,18.242,VALID,143,VALID,0,
2013-09-26, 01:36:04,VALID,919.035,VALID,0,VALID,96.6115,VALID,0,VALID,18.2823,VALID,143,VALID,0,
2013-09-26, 01:37:04,VALID,919.019,VALID,0,VALID,96.5887,VALID,0,VALID,18.3018,VALID,143,VALID,0,
2013-09-26, 01:38:04,VALID,919.028,VALID,0,VALID,96.5734,VALID,0,VALID,18.3004,VALID,133,VALID,0,
2013-09-26, 01:39:04,VALID,919.023,VALID,0,VALID,96.5582,VALID,0,VALID,18.3199,VALID,121,VALID,0,
2013-09-26, 01:40:04,VALID,919.06,VALID,0,VALID,96.5124,VALID,0,VALID,18.3199,VALID,121,VALID,0,
2013-09-26, 01:41:04,VALID,919.055,VALID,0,VALID,96.4286,VALID,0,VALID,18.3408,VALID,118,VALID,0,
2013-09-26, 01:42:04,VALID,919.055,VALID,0,VALID,96.3829,VALID,0,VALID,18.3018,VALID,116,VALID,0,
2013-09-26, 01:43:04,VALID,919.06,VALID,0,VALID,96.3371,VALID,0,VALID,18.3004,VALID,115,VALID,0,
2013-09-26, 01:44:04,VALID,919.056,VALID,0,VALID,96.2533,VALID,0,VALID,18.2823,VALID,115,VALID,0,
2013-09-26, 01:45:04,VALID,919.005,VALID,0,VALID,96.2304,VALID,0,VALID,18.2615,VALID,117,VALID,0,
2013-09-26, 01:46:04,VALID,918.979,VALID,0,VALID,96.2075,VALID,0,VALID,18.2615,VALID,124,VALID,0,
2013-09-26, 01:47:04,VALID,918.942,VALID,0,VALID,96.1846,VALID,0,VALID,18.2433,VALID,120,VALID,0,
2013-09-26, 01:48:04,VALID,918.91,VALID,0,VALID,96.1236,VALID,0,VALID,18.203,VALID,114,VALID,0,
2013-09-26, 01:49:04,VALID,918.91,VALID,0,VALID,96.1236,VALID,0,VALID,18.1849,VALID,118,VALID,0,
2013-09-26, 01:50:04,VALID,918.87,VALID,0,VALID,96.1694,VALID,0,VALID,18.164,VALID,132,VALID,0,
2013-09-26, 01:51:04,VALID,918.882,VALID,0,VALID,96.1923,VALID,0,VALID,18.1445,VALID,132,VALID,0,
2013-09-26, 01:52:04,VALID,918.855,VALID,0,VALID,96.2228,VALID,0,VALID,18.1055,VALID,121,VALID,0,
2013-09-26, 01:53:04,VALID,918.834,VALID,0,VALID,96.2609,VALID,0,VALID,18.1055,VALID,140,VALID,0,
2013-09-26, 01:54:04,VALID,918.785,VALID,0,VALID,96.3447,VALID,0,VALID,18.1445,VALID,127,VALID,0,
2013-09-26, 01:55:04,VALID,918.79,VALID,0,VALID,96.3676,VALID,0.107441,VALID,18.1431,VALID,128,VALID,0,
2013-09-26, 01:56:04,VALID,918.778,VALID,0,VALID,96.4133,VALID,0,VALID,18.1431,VALID,147,VALID,0,
2013-09-26, 01:57:04,VALID,918.789,VALID,0,VALID,96.4667,VALID,0.107441,VALID,18.1626,VALID,145,VALID,0,
2013-09-26, 01:58:04,VALID,918.781,VALID,0,VALID,96.4972,VALID,0.107441,VALID,18.1821,VALID,136,VALID,0,
2013-09-26, 01:59:04,VALID,918.76,VALID,0,VALID,96.5353,VALID,0.107441,VALID,18.2225,VALID,138,VALID,0,
2013-09-26, 02:00:04,VALID,918.743,VALID,0,VALID,96.5506,VALID,0.107441,VALID,18.2211,VALID,138,VALID,0,
2013-09-26, 02:01:04,VALID,918.757,VALID,0,VALID,96.5658,VALID,0,VALID,18.203,VALID,139,VALID,0,
2013-09-26, 02:02:04,VALID,918.703,VALID,0,VALID,96.5811,VALID,0,VALID,18.1626,VALID,140,VALID,0,
2013-09-26, 02:03:04,VALID,918.67,VALID,0,VALID,96.6039,VALID,0,VALID,18.203,VALID,139,VALID,0,
2013-09-26, 02:04:04,VALID,918.692,VALID,0,VALID,96.6115,VALID,0,VALID,18.1431,VALID,136,VALID,0,
2013-09-26, 02:05:04,VALID,918.681,VALID,0,VALID,96.6268,VALID,0.107441,VALID,18.1626,VALID,136,VALID,0,
2013-09-26, 02:06:04,VALID,918.713,VALID,0,VALID,96.6573,VALID,0,VALID,18.203,VALID,140,VALID,0,
2013-09-26, 02:07:04,VALID,918.707,VALID,0,VALID,96.6725,VALID,0.107441,VALID,18.2211,VALID,140,VALID,0,
2013-09-26, 02:08:04,VALID,918.727,VALID,0,VALID,96.6954,VALID,0.107441,VALID,18.203,VALID,141,VALID,0,
2013-09-26, 02:09:04,VALID,918.727,VALID,0,VALID,96.7107,VALID,0.107441,VALID,18.2225,VALID,140,VALID,0,
2013-09-26, 02:10:04,VALID,918.716,VALID,0,VALID,96.703,VALID,0,VALID,18.203,VALID,127,VALID,0,
2013-09-26, 02:11:04,VALID,918.74,VALID,0,VALID,96.7488,VALID,0,VALID,18.2044,VALID,127,VALID,0,
2013-09-26, 02:12:04,VALID,918.726,VALID,0,VALID,96.7411,VALID,0,VALID,18.2044,VALID,123,VALID,0,
2013-09-26, 02:13:04,VALID,918.73,VALID,0,VALID,96.7411,VALID,0,VALID,18.164,VALID,123,VALID,0,
2013-09-26, 02:14:04,VALID,918.765,VALID,0,VALID,96.7488,VALID,0,VALID,18.1835,VALID,123,VALID,0,
2013-09-26, 02:15:04,VALID,918.769,VALID,0,VALID,96.764,VALID,0,VALID,18.164,VALID,119,VALID,0,
2013-09-26, 02:16:04,VALID,918.801,VALID,0,VALID,96.764,VALID,0,VALID,18.164,VALID,119,VALID,0,
2013-09-26, 02:17:04,VALID,918.769,VALID,0,VALID,96.7869,VALID,0,VALID,18.164,VALID,119,VALID,0,
2013-09-26, 02:18:04,VALID,918.746,VALID,0,VALID,96.7716,VALID,0,VALID,18.1445,VALID,119,VALID,0,
2013-09-26, 02:19:04,VALID,918.725,VALID,0,VALID,96.7716,VALID,0,VALID,18.1445,VALID,119,VALID,0,
2013-09-26, 02:20:04,VALID,918.718,VALID,0,VALID,96.764,VALID,0,VALID,18.1055,VALID,118,VALID,0,
2013-09-26, 02:21:04,VALID,918.699,VALID,0,VALID,96.7411,VALID,0,VALID,18.1055,VALID,128,VALID,0,
2013-09-26, 02:22:04,VALID,918.699,VALID,0,VALID,96.7411,VALID,0,VALID,18.086,VALID,131,VALID,0,
2013-09-26, 02:23:04,VALID,918.737,VALID,0,VALID,96.7411,VALID,0,VALID,18.0874,VALID,129,VALID,0,
2013-09-26, 02:24:04,VALID,918.762,VALID,0,VALID,96.7411,VALID,0,VALID,18.1055,VALID,122,VALID,0,
2013-09-26, 02:25:04,VALID,918.799,VALID,0,VALID,96.7488,VALID,0,VALID,18.1055,VALID,117,VALID,0,
2013-09-26, 02:26:04,VALID,918.842,VALID,0,VALID,96.7411,VALID,0,VALID,18.047,VALID,113,VALID,0,
2013-09-26, 02:27:04,VALID,918.817,VALID,0,VALID,96.7335,VALID,0,VALID,18.0275,VALID,140,VALID,0,
2013-09-26, 02:28:04,VALID,918.832,VALID,0,VALID,96.7335,VALID,0,VALID,18.0289,VALID,140,VALID,0,
2013-09-26, 02:29:04,VALID,918.84,VALID,0,VALID,96.7564,VALID,0,VALID,18.0303,VALID,140,VALID,0,
2013-09-26, 02:30:04,VALID,918.833,VALID,0,VALID,96.7259,VALID,0,VALID,17.9496,VALID,133,VALID,0,
2013-09-26, 02:31:04,VALID,918.856,VALID,0,VALID,96.7488,VALID,0,VALID,17.9509,VALID,130,VALID,0,
2013-09-26, 02:32:04,VALID,918.851,VALID,0,VALID,96.7183,VALID,0,VALID,17.9301,VALID,131,VALID,0,
2013-09-26, 02:33:04,VALID,918.835,VALID,0,VALID,96.7411,VALID,0,VALID,17.9704,VALID,131,VALID,0,
2013-09-26, 02:34:04,VALID,918.828,VALID,0,VALID,96.764,VALID,0,VALID,17.9899,VALID,131,VALID,0,
2013-09-26, 02:35:04,VALID,918.821,VALID,0,VALID,96.7716,VALID,0,VALID,18.0094,VALID,132,VALID,0,
2013-09-26, 02:36:04,VALID,918.826,VALID,0,VALID,96.7793,VALID,0,VALID,17.9886,VALID,132,VALID,0,
2013-09-26, 02:37:04,VALID,918.85,VALID,0,VALID,96.7945,VALID,0,VALID,18.0289,VALID,136,VALID,0,
2013-09-26, 02:38:04,VALID,918.848,VALID,0,VALID,96.8174,VALID,0,VALID,17.9886,VALID,154,VALID,0,
2013-09-26, 02:39:04,VALID,918.846,VALID,0,VALID,96.7869,VALID,0,VALID,17.9886,VALID,157,VALID,0,
2013-09-26, 02:40:04,VALID,918.838,VALID,0,VALID,96.825,VALID,0,VALID,18.0289,VALID,155,VALID,0,
2013-09-26, 02:41:04,VALID,918.804,VALID,0,VALID,96.825,VALID,0,VALID,18.0484,VALID,155,VALID,0,
2013-09-26, 02:42:04,VALID,918.834,VALID,0,VALID,96.8174,VALID,0,VALID,18.0275,VALID,149,VALID,0,
2013-09-26, 02:43:04,VALID,918.802,VALID,0,VALID,96.7945,VALID,0,VALID,17.9691,VALID,129,VALID,0,
2013-09-26, 02:44:04,VALID,918.779,VALID,0,VALID,96.8021,VALID,0,VALID,17.9301,VALID,132,VALID,0,
2013-09-26, 02:45:04,VALID,918.799,VALID,0,VALID,96.8098,VALID,0,VALID,17.8911,VALID,127,VALID,0,
2013-09-26, 02:46:04,VALID,918.754,VALID,0,VALID,96.8021,VALID,0,VALID,17.8925,VALID,135,VALID,0,
2013-09-26, 02:47:04,VALID,918.772,VALID,0,VALID,96.7869,VALID,0,VALID,17.8535,VALID,140,VALID,0,
2013-09-26, 02:48:04,VALID,918.754,VALID,0,VALID,96.8021,VALID,0,VALID,17.873,VALID,108,VALID,0,
2013-09-26, 02:49:04,VALID,918.737,VALID,0,VALID,96.8098,VALID,0,VALID,17.8521,VALID,124,VALID,0,
2013-09-26, 02:50:04,VALID,918.789,VALID,0,VALID,96.8021,VALID,0,VALID,17.8535,VALID,115,VALID,0,
2013-09-26, 02:51:04,VALID,918.784,VALID,0,VALID,96.8174,VALID,0,VALID,17.8716,VALID,118,VALID,0,
2013-09-26, 02:52:04,VALID,918.744,VALID,0,VALID,96.825,VALID,0,VALID,17.9119,VALID,126,VALID,0,
2013-09-26, 02:53:04,VALID,918.784,VALID,0,VALID,96.8326,VALID,0,VALID,17.9301,VALID,120,VALID,0,
2013-09-26, 02:54:04,VALID,918.785,VALID,0,VALID,96.8326,VALID,0,VALID,17.9509,VALID,124,VALID,0,
2013-09-26, 02:55:04,VALID,918.82,VALID,0,VALID,96.8174,VALID,0,VALID,17.9092,VALID,109,VALID,0,
2013-09-26, 02:56:04,VALID,918.839,VALID,0,VALID,96.8326,VALID,0,VALID,17.9496,VALID,132,VALID,0,
2013-09-26, 02:57:04,VALID,918.831,VALID,0,VALID,96.8021,VALID,0,VALID,17.9106,VALID,133,VALID,0,
2013-09-26, 02:58:04,VALID,918.83,VALID,0,VALID,96.8021,VALID,0.107441,VALID,17.8897,VALID,132,VALID,0,
2013-09-26, 02:59:04,VALID,918.8,VALID,0,VALID,96.8326,VALID,0,VALID,17.9106,VALID,134,VALID,0,
2013-09-26, 03:00:04,VALID,918.819,VALID,0,VALID,96.825,VALID,0.107441,VALID,17.8508,VALID,137,VALID,0,
2013-09-26, 03:01:04,VALID,918.789,VALID,0,VALID,96.8326,VALID,0,VALID,17.8508,VALID,135,VALID,0,
2013-09-26, 03:02:04,VALID,918.799,VALID,0,VALID,96.825,VALID,0,VALID,17.8521,VALID,134,VALID,0,
2013-09-26, 03:03:04,VALID,918.795,VALID,0,VALID,96.8403,VALID,0,VALID,17.8508,VALID,122,VALID,0,
2013-09-26, 03:04:04,VALID,918.806,VALID,0,VALID,96.8707,VALID,0,VALID,17.9314,VALID,114,VALID,0,
2013-09-26, 03:05:04,VALID,918.823,VALID,0,VALID,96.8631,VALID,0,VALID,17.8897,VALID,142,VALID,0,
2013-09-26, 03:06:04,VALID,918.808,VALID,0,VALID,96.8631,VALID,0,VALID,17.848,VALID,139,VALID,0,
2013-09-26, 03:07:04,VALID,918.793,VALID,0,VALID,96.8784,VALID,0,VALID,17.9314,VALID,133,VALID,0,
2013-09-26, 03:08:04,VALID,918.801,VALID,0,VALID,96.886,VALID,0,VALID,17.9301,VALID,130,VALID,0,
2013-09-26, 03:09:04,VALID,918.796,VALID,0,VALID,96.9012,VALID,0.107441,VALID,17.9287,VALID,110,VALID,0,
2013-09-26, 03:10:04,VALID,918.812,VALID,0,VALID,96.8707,VALID,0,VALID,17.9496,VALID,115,VALID,0,
2013-09-26, 03:11:04,VALID,918.8,VALID,0,VALID,96.8784,VALID,0,VALID,17.9482,VALID,115,VALID,0,
2013-09-26, 03:12:04,VALID,918.8,VALID,0,VALID,96.8555,VALID,0,VALID,17.9287,VALID,115,VALID,0,
2013-09-26, 03:13:04,VALID,918.772,VALID,0,VALID,96.8326,VALID,0,VALID,17.9092,VALID,115,VALID,0,
2013-09-26, 03:14:04,VALID,918.757,VALID,0,VALID,96.7869,VALID,0,VALID,17.9106,VALID,112,VALID,0,
2013-09-26, 03:15:04,VALID,918.765,VALID,0,VALID,96.7716,VALID,0,VALID,17.8716,VALID,111,VALID,0,
2013-09-26, 03:16:04,VALID,918.762,VALID,0,VALID,96.703,VALID,0.107441,VALID,17.8535,VALID,111,VALID,0,
2013-09-26, 03:17:04,VALID,918.769,VALID,0,VALID,96.703,VALID,0,VALID,17.8548,VALID,111,VALID,0,
2013-09-26, 03:18:04,VALID,918.763,VALID,0,VALID,96.6954,VALID,0,VALID,17.7923,VALID,111,VALID,0,
2013-09-26, 03:19:04,VALID,918.794,VALID,0,VALID,96.6954,VALID,0,VALID,17.8743,VALID,111,VALID,0,
2013-09-26, 03:20:04,VALID,918.793,VALID,0,VALID,96.7107,VALID,0,VALID,17.8104,VALID,111,VALID,0,
2013-09-26, 03:21:04,VALID,918.783,VALID,0,VALID,96.7259,VALID,0,VALID,17.8716,VALID,111,VALID,0,
2013-09-26, 03:22:04,VALID,918.779,VALID,0,VALID,96.703,VALID,0.107441,VALID,17.8911,VALID,111,VALID,0,
2013-09-26, 03:23:04,VALID,918.745,VALID,0,VALID,96.7107,VALID,0,VALID,17.8897,VALID,111,VALID,0,
2013-09-26, 03:24:04,VALID,918.774,VALID,0,VALID,96.6725,VALID,0,VALID,17.8702,VALID,110,VALID,0,
2013-09-26, 03:25:04,VALID,918.786,VALID,0,VALID,96.6115,VALID,0,VALID,17.8145,VALID,111,VALID,0,
2013-09-26, 03:26:04,VALID,918.773,VALID,0,VALID,96.5429,VALID,0,VALID,17.7338,VALID,111,VALID,0,
2013-09-26, 03:27:04,VALID,918.76,VALID,0,VALID,96.5506,VALID,0,VALID,17.7728,VALID,110,VALID,0,
2013-09-26, 03:28:04,VALID,918.771,VALID,0,VALID,96.5811,VALID,0,VALID,17.8548,VALID,110,VALID,0,
2013-09-26, 03:29:04,VALID,918.743,VALID,0,VALID,96.5353,VALID,0,VALID,17.8158,VALID,110,VALID,0,
2013-09-26, 03:30:04,VALID,918.717,VALID,0,VALID,96.4286,VALID,0,VALID,17.6559,VALID,111,VALID,0,
2013-09-26, 03:31:04,VALID,918.78,VALID,0,VALID,96.4286,VALID,0,VALID,17.6754,VALID,110,VALID,0,
2013-09-26, 03:32:04,VALID,918.729,VALID,0,VALID,96.5048,VALID,0,VALID,17.7755,VALID,110,VALID,0,
2013-09-26, 03:33:04,VALID,918.76,VALID,0,VALID,96.5887,VALID,0,VALID,17.9133,VALID,111,VALID,0,
2013-09-26, 03:34:04,VALID,918.785,VALID,0,VALID,96.5734,VALID,0,VALID,17.9342,VALID,111,VALID,0,
2013-09-26, 03:35:04,VALID,918.793,VALID,0,VALID,96.5887,VALID,0,VALID,17.8508,VALID,111,VALID,0,
2013-09-26, 03:36:04,VALID,918.779,VALID,0,VALID,96.5582,VALID,0,VALID,17.9314,VALID,111,VALID,0,
2013-09-26, 03:37:04,VALID,918.793,VALID,0,VALID,96.5658,VALID,0,VALID,17.9314,VALID,111,VALID,0,
2013-09-26, 03:38:04,VALID,918.763,VALID,0,VALID,96.5201,VALID,0,VALID,17.9106,VALID,111,VALID,0,
2013-09-26, 03:39:04,VALID,918.745,VALID,0,VALID,96.5277,VALID,0,VALID,17.9106,VALID,110,VALID,0,
2013-09-26, 03:40:04,VALID,918.764,VALID,0,VALID,96.4972,VALID,0.107441,VALID,17.9092,VALID,111,VALID,0,
2013-09-26, 03:41:04,VALID,918.749,VALID,0,VALID,96.5048,VALID,0,VALID,17.9496,VALID,111,VALID,0,
2013-09-26, 03:42:04,VALID,918.757,VALID,0,VALID,96.4819,VALID,0,VALID,17.9092,VALID,111,VALID,0,
2013-09-26, 03:43:04,VALID,918.771,VALID,0,VALID,96.4438,VALID,0,VALID,17.9092,VALID,111,VALID,0,
2013-09-26, 03:44:04,VALID,918.802,VALID,0,VALID,96.421,VALID,0,VALID,17.8494,VALID,114,VALID,0,
2013-09-26, 03:45:04,VALID,918.822,VALID,0,VALID,96.3981,VALID,0,VALID,17.8326,VALID,132,VALID,0,
2013-09-26, 03:46:04,VALID,918.857,VALID,0,VALID,96.3829,VALID,0,VALID,17.7533,VALID,129,VALID,0,
2013-09-26, 03:47:04,VALID,918.841,VALID,0,VALID,96.36,VALID,0,VALID,17.8353,VALID,137,VALID,0,
2013-09-26, 03:48:04,VALID,918.859,VALID,0,VALID,96.4133,VALID,0,VALID,17.713,VALID,124,VALID,0,
2013-09-26, 03:49:04,VALID,918.851,VALID,0,VALID,96.4057,VALID,0.107441,VALID,17.7755,VALID,122,VALID,0,
2013-09-26, 03:50:04,VALID,918.826,VALID,0,VALID,96.4133,VALID,0,VALID,17.7365,VALID,120,VALID,0,
2013-09-26, 03:51:04,VALID,918.819,VALID,0,VALID,96.4515,VALID,0,VALID,17.7157,VALID,125,VALID,0,
2013-09-26, 03:52:04,VALID,918.835,VALID,0,VALID,96.4972,VALID,0,VALID,17.7574,VALID,130,VALID,0,
2013-09-26, 03:53:04,VALID,918.83,VALID,0,VALID,96.5124,VALID,0,VALID,17.7352,VALID,130,VALID,0,
2013-09-26, 03:54:04,VALID,918.811,VALID,0,VALID,96.5506,VALID,0,VALID,17.7768,VALID,128,VALID,0,
2013-09-26, 03:55:04,VALID,918.807,VALID,0,VALID,96.5582,VALID,0,VALID,17.7143,VALID,128,VALID,0,
2013-09-26, 03:56:04,VALID,918.807,VALID,0,VALID,96.5658,VALID,0,VALID,17.7352,VALID,128,VALID,0,
2013-09-26, 03:57:04,VALID,918.761,VALID,0,VALID,96.5887,VALID,0,VALID,17.756,VALID,128,VALID,0,
2013-09-26, 03:58:04,VALID,918.774,VALID,0,VALID,96.6115,VALID,0,VALID,17.7365,VALID,128,VALID,0,
2013-09-26, 03:59:04,VALID,918.73,VALID,0,VALID,96.6039,VALID,0,VALID,17.7352,VALID,128,VALID,0,